Simultaneous Nadir Overpasses (SNOs) Predictions

Prediction of SNOs over PacNW region [( 10.00, 139.50) to ( 22.70, 165.60)] between AQUA and NPP Satellites:

Table of predicted SNOs over PacNW region for the next 30.0 days since TLE Epoch: 6/14/2019
Index Date (AQUA) Time (AQUA) AQUA Lat,Lon Date (NPP) Time (NPP) NPP Lat,Lon Distance(km) Time Diff (sec)
1 06/15/2019 15:09:54 22.64, 159.86 06/15/2019 15:11:10 23.22, 157.21 278.50 76
2 06/18/2019 03:31:45 22.69, 147.53 06/18/2019 03:28:15 25.48, 145.01 402.62 210
3 06/23/2019 15:59:19 22.59, 147.49 06/23/2019 16:01:58 23.26, 144.53 312.41 159
4 07/01/2019 15:09:49 22.58, 159.86 07/01/2019 15:11:17 23.18, 157.19 281.26 88
5 07/04/2019 03:31:38 22.68, 147.55 07/04/2019 03:28:08 24.72, 145.19 329.77 210
6 07/09/2019 15:59:11 22.61, 147.51 07/09/2019 16:02:03 23.26, 144.52 315.20 172




NCC Satellite Simultaneous Nadir Overpasses (SNOs) Prediction Service
